STARLINK-34927 (65196 NORAD) Tracking and Keplerian Element Data

This shows tracking and keplerian element data for the satellite.

Feedback or suggestion? Click here.




ElementValue
Catalog65196
NameSTARLINK-34927
Epoch Orbit2067
Epoch Day354.13760593
Epoch Year2025
RAAN224.302
Inclination97.6013
Eccentricity0.0002223
Argument of Perigee77.4759
Mean Anonmoly282.6716
Mean Motion15.05651448
Decay Rate3.349E-05
L11 65196U 25175Y 25354.13760593 .00003349 00000+0 23617-3 0 9990
L22 65196 97.6013 224.3020 0002223 77.4759 282.6716 15.05651448 20672



Live tracking and technical data element details for STARLINK-34927 (NORAD 65196). STARLINK-34927 can be tracked NOW for your location showing map with azimuth and elevation plus other details from your city location.







IsCatalogInMostPopularTable: catalog: 65196, numindb: 5
Update: records affected: 1



GetName: 65196 STARLINK-34927

Hit Count: updated at: Wed, 11 Feb 2026 15:13:33 GMT